laestrella.com.pa alexa rank chart, laestrella.com.pa alexa rank daily changes

laestrella.com.pa alexa rank chart, laestrella.com.pa alexa rank daily changes

laestrella.com.pa
Actual rank:
10 792

RANK HISTORY

Date Rank Diff
2018/10/18 10 792 +585
2018/10/17 10 207 -3 916
2018/10/16 14 123 -421
2018/10/15 14 544 +2 926
2018/10/14 11 618 +984
2018/10/13 10 634 +19
2018/10/12 10 615 -247
2018/10/11 10 862 +600
2018/10/10 10 262 -4 496
2018/10/09 14 758 -949
2018/10/08 15 707 +4 180
2018/10/07 11 527 +916
2018/10/06 10 611 +475
2018/10/05 10 136 +273
2018/10/04 9 863 +58
2018/10/03 9 805 -5 495
2018/10/02 15 300 -2 216
2018/10/01 17 516 +4 190
2018/09/30 13 326 +1 768
2018/09/29 11 558 +21
2018/09/28 11 537 -11
2018/09/27 11 548 +119
2018/09/26 11 429 -4 143
2018/09/25 15 572 +980
2018/09/24 14 592 +3 844
2018/09/23 10 748 +491
2018/09/22 10 257 -863
2018/09/21 11 120 -357
2018/09/20 11 477 +2 693
2018/09/19 8 784 -6 010
2018/09/18 14 794 -1 678
2018/09/17 16 472 +3 594
2018/09/16 12 878 +1 882
2018/09/15 10 996 +1 499
2018/09/14 9 497 -1 723
2018/09/13 11 220 -592
2018/09/12 11 812 -3 053
2018/09/11 14 865 -15
2018/09/10 14 880 +1 438
2018/09/09 13 442 +944
2018/09/08 12 498 -302
2018/09/07 12 800 +579
2018/09/06 12 221 +849
2018/09/05 11 372 -6 847
2018/09/04 18 219 -117
2018/09/03 18 336 +4 827
2018/09/02 13 509 +840
2018/09/01 12 669 -407
2018/08/31 13 076 +137
2018/08/30 12 939 +221
2018/08/29 12 718 -3 664
2018/08/28 16 382 -2 303
2018/08/27 18 685 +4 881
2018/08/26 13 804 +1 736
2018/08/25 12 068 +1 164
2018/08/24 10 904 -588
2018/08/23 11 492 -3 519
2018/08/22 15 011 -1 110
2018/08/21 16 121 +108
2018/08/20 16 013 +4 345
2018/08/19 11 668

WIDGET FOR YOUR SITE

DOMAINS WITH THE NEAREST RANK

Domain Rank
tdk.gov.tr 10 787
nudt.edu.cn 10 788
56.com 10 789
xclient.info 10 790
gerensuodeshui.cn 10 791
laestrella.com.pa 10 792
naftemporiki.gr 10 793
yandex.fr 10 794
madewell.com 10 795
cninfo.com.cn 10 796
sexy-youtubers.com 10 797

DOMAINS WITH THE NEAREST RANK BY TLD .com.pa

Domain Rank
laestrella.com.pa 10 792
google.com.pa 16 191
elsiglo.com.pa 16 498